Location: Dampvalley
(47.9094°N, 6.1967°E)
Time: 20:56:28
(UTC+00:00)

Cosmos 1933 Rocket - Pass Details

Date: 05 March 2021
Orbit: 607 x 630 km, 82.5° (Epoch: 20 April)

Event Time Altitude Azimuth Distance (km) Brightness Sun altitude
Rises 05:18:13 0° 353° (N) 2,925 7.0 -9.2°
Reaches altitude 10° 05:20:29 10° 356° (N) 2,015 6.2 -8.8°
Maximum altitude 05:24:56 65° 79° (ENE) 698 4.1 -8.1°
Drops below altitude 10° 05:29:21 10° 161° (SSE) 2,005 6.5 -7.3°
Sets 05:31:36 0° 164° (SSE) 2,908 7.2 -6.9°
